TimePDT,TemperatureF,Dew PointF,Humidity,Sea Level PressureIn,VisibilityMPH,Wind Direction,Wind SpeedMPH,Gust SpeedMPH,PrecipitationIn,Events,Conditions,WindDirDegrees,DateUTC
12:53 AM,66.9,26.1,21,29.95,10.0,West,6.9,-,N/A,,Clear,270,2012-05-14 07:53:00
1:53 AM,70.0,9.0,9,29.94,10.0,NW,5.8,-,N/A,,Clear,310,2012-05-14 08:53:00
2:53 AM,72.0,-0.0,6,29.94,10.0,SW,5.8,-,N/A,,Clear,230,2012-05-14 09:53:00
3:53 AM,63.0,17.1,17,29.94,10.0,SW,8.1,-,N/A,,Clear,230,2012-05-14 10:53:00
4:53 AM,62.1,21.9,21,29.95,10.0,East,5.8,-,N/A,,Clear,90,2012-05-14 11:53:00
5:53 AM,55.0,25.0,31,29.97,10.0,SSE,5.8,-,N/A,,Clear,150,2012-05-14 12:53:00
6:53 AM,59.0,27.0,29,29.98,10.0,NNW,3.5,-,N/A,,Clear,330,2012-05-14 13:53:00
7:53 AM,64.0,32.0,30,29.99,10.0,North,4.6,-,N/A,,Clear,10,2012-05-14 14:53:00
8:53 AM,69.1,32.0,25,29.99,10.0,Variable,3.5,-,N/A,,Clear,0,2012-05-14 15:53:00
9:53 AM,73.9,25.0,16,29.97,10.0,Calm,Calm,-,N/A,,Clear,0,2012-05-14 16:53:00
10:53 AM,84.9,12.0,7,29.94,10.0,SW,12.7,-,N/A,,Clear,220,2012-05-14 17:53:00
11:53 AM,86.0,17.6,8,30.00,10.0,SSW,15.0,20.7,N/A,,Clear,210,2012-05-14 18:53:00
12:53 PM,88.0,18.0,8,29.90,10.0,SW,18.4,23.0,N/A,,Clear,220,2012-05-14 19:53:00
1:53 PM,88.0,19.0,8,29.88,10.0,West,19.6,24.2,N/A,,Clear,260,2012-05-14 20:53:00
2:53 PM,88.0,19.0,8,29.87,10.0,WSW,26.5,33.4,N/A,,Clear,250,2012-05-14 21:53:00
3:53 PM,87.1,27.0,11,29.85,10.0,SW,25.3,34.5,N/A,,Clear,230,2012-05-14 22:53:00
4:53 PM,84.9,19.9,9,29.86,10.0,SSW,27.6,34.5,N/A,,Clear,210,2012-05-14 23:53:00
5:53 PM,82.0,27.0,13,29.87,10.0,SW,20.7,32.2,N/A,,Clear,230,2012-05-15 00:53:00
6:53 PM,77.0,30.0,18,29.86,10.0,SW,23.0,-,N/A,,Clear,220,2012-05-15 01:53:00
7:53 PM,73.0,23.0,15,29.86,10.0,SW,20.7,26.5,N/A,,Clear,230,2012-05-15 02:53:00
8:53 PM,71.1,23.0,16,29.89,10.0,Variable,4.6,-,N/A,,Clear,0,2012-05-15 03:53:00
9:53 PM,69.1,23.0,18,29.90,10.0,WNW,4.6,-,N/A,,Clear,300,2012-05-15 04:53:00
10:53 PM,64.9,28.9,26,29.90,10.0,West,9.2,-,N/A,,Clear,260,2012-05-15 05:53:00
11:53 PM,64.9,28.9,26,29.90,10.0,WNW,9.2,-,N/A,,Clear,300,2012-05-15 06:53:00